,,,PA_Meas_PMT16A,,PR_Meas_QMR101_102,,RH_Meas_QMH101,,SR_Meas_QMS101,,TA_Meas_QMH101,,GenWind,,GenWind,
date,time,status,PA,status,PR,status,RH,status,SR,status,TA,status,DirAvg,status,SpdAvg,
2012-09-11, 00:00:05,VALID,1001.33,VALID,0,VALID,78.2112,VALID,0,VALID,23.7402,VALID,114,VALID,0,
2012-09-11, 00:01:05,VALID,1001.32,VALID,0,VALID,78.669,VALID,0,VALID,23.7189,VALID,114,VALID,0,
2012-09-11, 00:02:05,VALID,1001.31,VALID,0,VALID,78.5775,VALID,0,VALID,23.6799,VALID,114,VALID,0,
2012-09-11, 00:03:05,VALID,1001.33,VALID,0,VALID,79.0505,VALID,0,VALID,23.7012,VALID,114,VALID,0.135937,
2012-09-11, 00:04:05,VALID,1001.29,VALID,0,VALID,78.9361,VALID,0.104696,VALID,23.6622,VALID,121,VALID,0.294141,
2012-09-11, 00:05:05,VALID,1001.3,VALID,0,VALID,79.0123,VALID,0,VALID,23.6409,VALID,142,VALID,0.211328,
2012-09-11, 00:06:05,VALID,1001.27,VALID,0,VALID,79.3633,VALID,0,VALID,23.6409,VALID,142,VALID,0.151562,
2012-09-11, 00:07:05,VALID,1001.27,VALID,0,VALID,79.081,VALID,0,VALID,23.6232,VALID,142,VALID,0.316406,
2012-09-11, 00:08:05,VALID,1001.24,VALID,0,VALID,78.257,VALID,0,VALID,23.6036,VALID,135,VALID,0.724609,
2012-09-11, 00:09:05,VALID,1001.28,VALID,0,VALID,78.0892,VALID,0,VALID,23.6214,VALID,131,VALID,0.614453,
2012-09-11, 00:10:05,VALID,1001.26,VALID,0,VALID,77.6009,VALID,0,VALID,23.6604,VALID,127,VALID,0.785937,
2012-09-11, 00:11:05,VALID,1001.27,VALID,0,VALID,77.3262,VALID,0,VALID,23.7402,VALID,126,VALID,0.682813,
2012-09-11, 00:12:05,VALID,1001.28,VALID,0,VALID,76.9218,VALID,0,VALID,23.7384,VALID,129,VALID,0.611719,
2012-09-11, 00:13:05,VALID,1001.26,VALID,0,VALID,77.0058,VALID,0.104696,VALID,23.7579,VALID,129,VALID,0.192969,
2012-09-11, 00:14:05,VALID,1001.29,VALID,0,VALID,77.3262,VALID,0,VALID,23.7597,VALID,129,VALID,0.0386719,
2012-09-11, 00:15:05,VALID,1001.23,VALID,0,VALID,77.5017,VALID,0,VALID,23.7189,VALID,129,VALID,0.0660156,
2012-09-11, 00:16:05,VALID,1001.21,VALID,0,VALID,77.3872,VALID,0,VALID,23.7189,VALID,129,VALID,0.303516,
2012-09-11, 00:17:05,VALID,1001.23,VALID,0,VALID,76.8532,VALID,0,VALID,23.7402,VALID,121,VALID,0.348828,
2012-09-11, 00:18:05,VALID,1001.22,VALID,0,VALID,76.8913,VALID,0.104696,VALID,23.7579,VALID,121,VALID,0.160156,
2012-09-11, 00:19:05,VALID,1001.23,VALID,0,VALID,77.1736,VALID,0,VALID,23.7579,VALID,121,VALID,0.0417969,
2012-09-11, 00:20:05,VALID,1001.23,VALID,0,VALID,76.7158,VALID,0,VALID,23.7793,VALID,121,VALID,0.25625,
2012-09-11, 00:21:05,VALID,1001.25,VALID,0,VALID,76.9829,VALID,0,VALID,23.7793,VALID,121,VALID,0.600391,
2012-09-11, 00:22:05,VALID,1001.24,VALID,0,VALID,77.166,VALID,0,VALID,23.7775,VALID,121,VALID,0.648438,
2012-09-11, 00:23:05,VALID,1001.22,VALID,0,VALID,77.1049,VALID,0,VALID,23.8183,VALID,121,VALID,0.732422,
2012-09-11, 00:24:05,VALID,1001.21,VALID,0,VALID,77.3186,VALID,0,VALID,23.836,VALID,108,VALID,0.976953,
2012-09-11, 00:25:05,VALID,1001.16,VALID,0,VALID,77.372,VALID,0,VALID,23.8573,VALID,108,VALID,0.958203,
2012-09-11, 00:26:05,VALID,1001.18,VALID,0,VALID,77.3872,VALID,0,VALID,23.797,VALID,104,VALID,0.855078,
2012-09-11, 00:27:05,VALID,1001.16,VALID,0,VALID,77.7687,VALID,0,VALID,23.7988,VALID,105,VALID,0.910547,
2012-09-11, 00:28:05,VALID,1001.14,VALID,0,VALID,77.9823,VALID,0,VALID,23.7597,VALID,98,VALID,1.31914,
2012-09-11, 00:29:05,VALID,1001.12,VALID,0,VALID,78.6385,VALID,0,VALID,23.7597,VALID,98,VALID,1.29336,
2012-09-11, 00:30:05,VALID,1001.11,VALID,0,VALID,78.9437,VALID,0,VALID,23.7402,VALID,98,VALID,0.939062,
2012-09-11, 00:31:05,VALID,1001.12,VALID,0,VALID,79.0352,VALID,0,VALID,23.7402,VALID,94,VALID,0.774219,
2012-09-11, 00:32:05,VALID,1001.1,VALID,0,VALID,79.1726,VALID,0,VALID,23.7207,VALID,94,VALID,0.778125,
2012-09-11, 00:33:05,VALID,1001.11,VALID,0,VALID,79.3786,VALID,0,VALID,23.6817,VALID,94,VALID,0.685938,
2012-09-11, 00:34:05,VALID,1001.12,VALID,0,VALID,79.554,VALID,0,VALID,23.6427,VALID,94,VALID,0.35,
2012-09-11, 00:35:05,VALID,1001.13,VALID,0,VALID,79.7982,VALID,0,VALID,23.6036,VALID,94,VALID,0.398438,
2012-09-11, 00:36:05,VALID,1001.12,VALID,0,VALID,80.0195,VALID,0,VALID,23.6036,VALID,94,VALID,0.335547,
2012-09-11, 00:37:05,VALID,1001.13,VALID,0,VALID,80.0423,VALID,0,VALID,23.6036,VALID,94,VALID,0.532422,
2012-09-11, 00:38:05,VALID,1001.12,VALID,0,VALID,79.9889,VALID,0,VALID,23.6036,VALID,89,VALID,0.411719,
2012-09-11, 00:39:05,VALID,1001.06,VALID,0,VALID,80.1034,VALID,0,VALID,23.6036,VALID,89,VALID,0.438672,
2012-09-11, 00:40:05,VALID,1001.06,VALID,0,VALID,79.9279,VALID,0,VALID,23.6036,VALID,112,VALID,0.542578,
2012-09-11, 00:41:05,VALID,1001.04,VALID,0,VALID,79.6532,VALID,0,VALID,23.6622,VALID,118,VALID,0.815625,
2012-09-11, 00:42:05,VALID,1001.01,VALID,0,VALID,79.2489,VALID,0,VALID,23.6817,VALID,118,VALID,0.667188,
2012-09-11, 00:43:05,VALID,1001.03,VALID,0,VALID,78.6385,VALID,0,VALID,23.7012,VALID,159,VALID,0.623047,
2012-09-11, 00:44:05,VALID,1001.02,VALID,0,VALID,78.1197,VALID,0,VALID,23.7597,VALID,133,VALID,0.886328,
2012-09-11, 00:45:05,VALID,1001.03,VALID,0,VALID,77.5398,VALID,0,VALID,23.8183,VALID,136,VALID,1.11563,
2012-09-11, 00:46:05,VALID,1001.04,VALID,0,VALID,77.0744,VALID,0,VALID,23.9159,VALID,146,VALID,1.10898,
2012-09-11, 00:47:05,VALID,1001.06,VALID,0,VALID,76.754,VALID,0,VALID,23.9531,VALID,144,VALID,0.841406,
2012-09-11, 00:48:05,VALID,1001.05,VALID,0,VALID,76.5632,VALID,0,VALID,24.0116,VALID,135,VALID,0.732422,
2012-09-11, 00:49:05,VALID,1001.03,VALID,0,VALID,76.258,VALID,0,VALID,24.0311,VALID,135,VALID,0.841406,
2012-09-11, 00:50:05,VALID,1001.02,VALID,0,VALID,75.579,VALID,0,VALID,24.1287,VALID,146,VALID,1.16367,
2012-09-11, 00:51:05,VALID,1000.97,VALID,0,VALID,75.167,VALID,0,VALID,24.2067,VALID,147,VALID,0.801562,
2012-09-11, 00:52:05,VALID,1000.96,VALID,0,VALID,74.961,VALID,0,VALID,24.2885,VALID,147,VALID,0.880859,
2012-09-11, 00:53:05,VALID,1000.96,VALID,0,VALID,74.8466,VALID,0,VALID,24.3062,VALID,147,VALID,0.696094,
2012-09-11, 00:54:05,VALID,1000.92,VALID,0,VALID,74.7779,VALID,0,VALID,24.347,VALID,147,VALID,0.773438,
2012-09-11, 00:55:05,VALID,1000.95,VALID,0,VALID,74.9152,VALID,0,VALID,24.347,VALID,147,VALID,0.654688,
2012-09-11, 00:56:05,VALID,1000.93,VALID,0,VALID,75.1365,VALID,0,VALID,24.3275,VALID,147,VALID,0.558203,
2012-09-11, 00:57:05,VALID,1000.92,VALID,0,VALID,75.2509,VALID,0,VALID,24.2885,VALID,147,VALID,0.820703,
2012-09-11, 00:58:05,VALID,1000.92,VALID,0,VALID,75.4722,VALID,0,VALID,24.269,VALID,141,VALID,1.06055,
2012-09-11, 00:59:05,VALID,1000.88,VALID,0,VALID,75.7087,VALID,0,VALID,24.2299,VALID,139,VALID,1.11172,
2012-09-11, 01:00:05,VALID,1000.88,VALID,0,VALID,75.7545,VALID,0,VALID,24.2086,VALID,136,VALID,1.18125,
2012-09-11, 01:01:05,VALID,1000.91,VALID,0,VALID,75.4493,VALID,0,VALID,24.1891,VALID,145,VALID,1.39844,
2012-09-11, 01:02:05,VALID,1000.9,VALID,0,VALID,75.3578,VALID,0,VALID,24.2476,VALID,143,VALID,1.39492,
2012-09-11, 01:03:05,VALID,1000.9,VALID,0,VALID,75.2509,VALID,0,VALID,24.2885,VALID,135,VALID,0.970703,
2012-09-11, 01:04:05,VALID,1000.93,VALID,0,VALID,75.2586,VALID,0,VALID,24.2866,VALID,138,VALID,1.00742,
2012-09-11, 01:05:05,VALID,1000.91,VALID,0,VALID,75.3044,VALID,0,VALID,24.3099,VALID,140,VALID,1.13516,
2012-09-11, 01:06:05,VALID,1000.89,VALID,0,VALID,75.518,VALID,0,VALID,24.269,VALID,146,VALID,0.958984,
2012-09-11, 01:07:05,VALID,1000.86,VALID,0,VALID,75.6706,VALID,0,VALID,24.2671,VALID,150,VALID,1.03281,
2012-09-11, 01:08:05,VALID,1000.85,VALID,0,VALID,75.7774,VALID,0,VALID,24.2476,VALID,149,VALID,1.29961,
2012-09-11, 01:09:05,VALID,1000.82,VALID,0,VALID,75.8155,VALID,0,VALID,24.2476,VALID,145,VALID,1.0582,
2012-09-11, 01:10:05,VALID,1000.83,VALID,0,VALID,75.8079,VALID,0,VALID,24.2476,VALID,142,VALID,1.12656,
2012-09-11, 01:11:05,VALID,1000.79,VALID,0,VALID,75.8842,VALID,0,VALID,24.2086,VALID,145,VALID,1.31914,
2012-09-11, 01:12:05,VALID,1000.8,VALID,0,VALID,76.0063,VALID,0,VALID,24.1891,VALID,159,VALID,1.22773,
2012-09-11, 01:13:05,VALID,1000.77,VALID,0,VALID,76.0368,VALID,0,VALID,24.2086,VALID,151,VALID,1.26484,
2012-09-11, 01:14:05,VALID,1000.76,VALID,0,VALID,75.93,VALID,0,VALID,24.2086,VALID,149,VALID,1.16172,
2012-09-11, 01:15:05,VALID,1000.71,VALID,0,VALID,76.0673,VALID,0,VALID,24.1891,VALID,154,VALID,1.31719,
2012-09-11, 01:16:05,VALID,1000.71,VALID,0,VALID,75.8918,VALID,0,VALID,24.2281,VALID,145,VALID,1.66172,
2012-09-11, 01:17:05,VALID,1000.7,VALID,0,VALID,75.7926,VALID,0,VALID,24.2281,VALID,158,VALID,1.46367,
2012-09-11, 01:18:05,VALID,1000.69,VALID,0,VALID,75.4264,VALID,0,VALID,24.2866,VALID,162,VALID,1.90313,
2012-09-11, 01:19:05,VALID,1000.68,VALID,0,VALID,75.312,VALID,0,VALID,24.3452,VALID,128,VALID,1.89531,
2012-09-11, 01:20:05,VALID,1000.68,VALID,0,VALID,75.1518,VALID,0,VALID,24.3647,VALID,144,VALID,1.77656,
2012-09-11, 01:21:05,VALID,1000.68,VALID,0,VALID,75.4569,VALID,0,VALID,24.3433,VALID,142,VALID,1.64063,
2012-09-11, 01:22:05,VALID,1000.66,VALID,0,VALID,75.579,VALID,0,VALID,24.2653,VALID,142,VALID,1.34023,
2012-09-11, 01:23:05,VALID,1000.7,VALID,0,VALID,75.8537,VALID,0,VALID,24.2653,VALID,140,VALID,1.03164,
2012-09-11, 01:24:05,VALID,1000.72,VALID,0,VALID,75.7392,VALID,0,VALID,24.2263,VALID,142,VALID,1.7293,
2012-09-11, 01:25:05,VALID,1000.72,VALID,0,VALID,75.8079,VALID,0,VALID,24.2263,VALID,144,VALID,1.58594,
2012-09-11, 01:26:05,VALID,1000.71,VALID,0,VALID,75.9147,VALID,0,VALID,24.1872,VALID,133,VALID,1.2875,
2012-09-11, 01:27:05,VALID,1000.72,VALID,0,VALID,76.2809,VALID,0,VALID,24.1482,VALID,138,VALID,0.967969,
2012-09-11, 01:28:05,VALID,1000.68,VALID,0,VALID,76.0215,VALID,0,VALID,24.15,VALID,136,VALID,1.81758,
2012-09-11, 01:29:05,VALID,1000.64,VALID,0,VALID,76.2428,VALID,0,VALID,24.111,VALID,139,VALID,1.74961,
2012-09-11, 01:30:05,VALID,1000.67,VALID,0,VALID,76.4641,VALID,0,VALID,24.1305,VALID,150,VALID,1.28945,
2012-09-11, 01:31:05,VALID,1000.65,VALID,0,VALID,76.2275,VALID,0,VALID,24.0915,VALID,148,VALID,1.63555,
2012-09-11, 01:32:05,VALID,1000.63,VALID,0,VALID,76.4183,VALID,0,VALID,24.0897,VALID,138,VALID,1.58516,
2012-09-11, 01:33:05,VALID,1000.65,VALID,0,VALID,76.6777,VALID,0,VALID,24.0915,VALID,143,VALID,1.10078,
2012-09-11, 01:34:05,VALID,1000.63,VALID,0,VALID,76.7006,VALID,0,VALID,24.0311,VALID,135,VALID,1.52813,
2012-09-11, 01:35:05,VALID,1000.63,VALID,0,VALID,76.9218,VALID,0,VALID,24.0525,VALID,141,VALID,1.39805,
2012-09-11, 01:36:05,VALID,1000.62,VALID,0,VALID,76.9676,VALID,0,VALID,24.0525,VALID,138,VALID,1.47305,
2012-09-11, 01:37:05,VALID,1000.62,VALID,0,VALID,77.0286,VALID,0,VALID,24.0116,VALID,141,VALID,1.57305,
2012-09-11, 01:38:05,VALID,1000.63,VALID,0,VALID,77.0897,VALID,0,VALID,24.0116,VALID,142,VALID,1.08398,
2012-09-11, 01:39:05,VALID,1000.67,VALID,0,VALID,76.9981,VALID,0,VALID,24.0311,VALID,138,VALID,0.985547,
2012-09-11, 01:40:05,VALID,1000.65,VALID,0,VALID,76.7692,VALID,0,VALID,24.111,VALID,137,VALID,1.37383,
2012-09-11, 01:41:05,VALID,1000.64,VALID,0,VALID,76.8608,VALID,0,VALID,24.111,VALID,143,VALID,1.0707,
2012-09-11, 01:42:05,VALID,1000.62,VALID,0,VALID,76.9676,VALID,0,VALID,24.1092,VALID,134,VALID,1.16289,
2012-09-11, 01:43:05,VALID,1000.59,VALID,0,VALID,76.7616,VALID,0,VALID,24.15,VALID,138,VALID,1.71172,
2012-09-11, 01:44:05,VALID,1000.6,VALID,0,VALID,76.7616,VALID,0,VALID,24.1696,VALID,148,VALID,1.76094,
2012-09-11, 01:45:05,VALID,1000.63,VALID,0,VALID,76.5861,VALID,0,VALID,24.1696,VALID,140,VALID,1.38828,
2012-09-11, 01:46:05,VALID,1000.59,VALID,0,VALID,76.7616,VALID,0,VALID,24.1891,VALID,145,VALID,1.475,
2012-09-11, 01:47:05,VALID,1000.62,VALID,0,VALID,76.7921,VALID,0,VALID,24.1891,VALID,142,VALID,1.62344,
2012-09-11, 01:48:05,VALID,1000.63,VALID,0,VALID,76.5327,VALID,0,VALID,24.2086,VALID,138,VALID,1.5375,
2012-09-11, 01:49:05,VALID,1000.6,VALID,0,VALID,76.7616,VALID,0,VALID,24.2476,VALID,124,VALID,1.15,
2012-09-11, 01:50:05,VALID,1000.61,VALID,0,VALID,76.6014,VALID,0,VALID,24.269,VALID,124,VALID,0.927344,
2012-09-11, 01:51:05,VALID,1000.59,VALID,0,VALID,76.4488,VALID,0,VALID,24.2476,VALID,123,VALID,1.4207,
2012-09-11, 01:52:05,VALID,1000.61,VALID,0,VALID,76.1894,VALID,0,VALID,24.2476,VALID,131,VALID,1.48281,
2012-09-11, 01:53:05,VALID,1000.62,VALID,0,VALID,75.8232,VALID,0,VALID,24.2458,VALID,147,VALID,1.33125,
2012-09-11, 01:54:05,VALID,1000.61,VALID,0,VALID,76.2428,VALID,0,VALID,24.2653,VALID,124,VALID,1.50039,
2012-09-11, 01:55:05,VALID,1000.59,VALID,0,VALID,75.9452,VALID,0,VALID,24.2866,VALID,133,VALID,2.06602,
2012-09-11, 01:56:05,VALID,1000.58,VALID,0,VALID,76.342,VALID,0,VALID,24.2848,VALID,130,VALID,1.75586,
2012-09-11, 01:57:05,VALID,1000.54,VALID,0,VALID,76.6777,VALID,0,VALID,24.2866,VALID,136,VALID,1.43516,
2012-09-11, 01:58:05,VALID,1000.54,VALID,0,VALID,76.5022,VALID,0,VALID,24.2263,VALID,134,VALID,1.52656,
2012-09-11, 01:59:05,VALID,1000.53,VALID,0,VALID,76.0368,VALID,0,VALID,24.2653,VALID,133,VALID,1.77969,
2012-09-11, 02:00:05,VALID,1000.52,VALID,0,VALID,76.0521,VALID,0,VALID,24.3043,VALID,134,VALID,1.85156,
2012-09-11, 02:01:05,VALID,1000.51,VALID,0,VALID,76.0521,VALID,0,VALID,24.3257,VALID,134,VALID,1.55195,
2012-09-11, 02:02:05,VALID,1000.46,VALID,0,VALID,76.0978,VALID,0,VALID,24.3043,VALID,134,VALID,1.62617,
2012-09-11, 02:03:05,VALID,1000.47,VALID,0,VALID,75.8155,VALID,0,VALID,24.3257,VALID,129,VALID,2.01992,
2012-09-11, 02:04:05,VALID,1000.46,VALID,0,VALID,75.9147,VALID,0,VALID,24.3043,VALID,142,VALID,1.68633,
2012-09-11, 02:05:05,VALID,1000.43,VALID,0,VALID,76.1665,VALID,0,VALID,24.3043,VALID,147,VALID,1.46953,
2012-09-11, 02:06:05,VALID,1000.41,VALID,0,VALID,76.4335,VALID,0,VALID,24.2653,VALID,132,VALID,1.30039,
2012-09-11, 02:07:05,VALID,1000.41,VALID,0,VALID,76.6395,VALID,0,VALID,24.2086,VALID,142,VALID,1.46875,
2012-09-11, 02:08:05,VALID,1000.4,VALID,0,VALID,76.815,VALID,0,VALID,24.1891,VALID,138,VALID,1.49805,
2012-09-11, 02:09:05,VALID,1000.39,VALID,0,VALID,76.7998,VALID,0,VALID,24.15,VALID,141,VALID,1.55625,
2012-09-11, 02:10:05,VALID,1000.38,VALID,0,VALID,76.9066,VALID,0,VALID,24.15,VALID,139,VALID,1.57656,
2012-09-11, 02:11:05,VALID,1000.38,VALID,0,VALID,77.0363,VALID,0,VALID,24.1519,VALID,140,VALID,1.44102,
2012-09-11, 02:12:05,VALID,1000.37,VALID,0,VALID,77.0897,VALID,0,VALID,24.111,VALID,136,VALID,1.44414,
2012-09-11, 02:13:05,VALID,1000.39,VALID,0,VALID,77.2346,VALID,0,VALID,24.1324,VALID,143,VALID,1.39805,
2012-09-11, 02:14:05,VALID,1000.4,VALID,0,VALID,77.2652,VALID,0,VALID,24.0915,VALID,134,VALID,1.57227,
2012-09-11, 02:15:05,VALID,1000.4,VALID,0,VALID,77.2346,VALID,0,VALID,24.0915,VALID,148,VALID,1.33164,
2012-09-11, 02:16:05,VALID,1000.36,VALID,0,VALID,77.2118,VALID,0,VALID,24.1128,VALID,140,VALID,1.97344,
2012-09-11, 02:17:05,VALID,1000.37,VALID,0,VALID,77.1202,VALID,0,VALID,24.111,VALID,147,VALID,1.32891,
2012-09-11, 02:18:05,VALID,1000.35,VALID,0,VALID,77.0363,VALID,0,VALID,24.1305,VALID,135,VALID,1.75625,
2012-09-11, 02:19:05,VALID,1000.35,VALID,0,VALID,77.0668,VALID,0,VALID,24.1324,VALID,135,VALID,1.41523,
2012-09-11, 02:20:05,VALID,1000.39,VALID,0,VALID,77.2346,VALID,0,VALID,24.1128,VALID,142,VALID,1.35234,
2012-09-11, 02:21:05,VALID,1000.36,VALID,0,VALID,77.2346,VALID,0,VALID,24.0915,VALID,137,VALID,1.13477,
2012-09-11, 02:22:05,VALID,1000.39,VALID,0,VALID,77.3033,VALID,0,VALID,24.0701,VALID,133,VALID,1.10586,
2012-09-11, 02:23:05,VALID,1000.38,VALID,0,VALID,77.0821,VALID,0,VALID,24.0897,VALID,130,VALID,1.14961,
2012-09-11, 02:24:05,VALID,1000.39,VALID,0,VALID,77.227,VALID,0,VALID,24.0701,VALID,129,VALID,1.06016,
2012-09-11, 02:25:05,VALID,1000.37,VALID,0,VALID,77.4254,VALID,0,VALID,24.072,VALID,129,VALID,1.05273,
2012-09-11, 02:26:05,VALID,1000.38,VALID,0,VALID,77.6772,VALID,0,VALID,24.0329,VALID,128,VALID,0.944922,
2012-09-11, 02:27:05,VALID,1000.35,VALID,0,VALID,77.6466,VALID,0,VALID,23.9921,VALID,123,VALID,1.19336,
2012-09-11, 02:28:04,VALID,1000.31,VALID,0,VALID,77.8298,VALID,0,VALID,23.9726,VALID,123,VALID,1.05469,
2012-09-11, 02:29:04,VALID,1000.32,VALID,0,VALID,77.7916,VALID,0,VALID,23.9939,VALID,111,VALID,0.880078,
2012-09-11, 02:30:04,VALID,1000.3,VALID,0,VALID,77.8526,VALID,0.104696,VALID,23.9531,VALID,102,VALID,0.914453,
2012-09-11, 02:31:04,VALID,1000.28,VALID,0,VALID,78.0281,VALID,0,VALID,23.9336,VALID,102,VALID,0.984375,
2012-09-11, 02:32:04,VALID,1000.29,VALID,0,VALID,78.2799,VALID,0,VALID,23.914,VALID,104,VALID,0.594922,
2012-09-11, 02:33:04,VALID,1000.3,VALID,0,VALID,78.5775,VALID,0,VALID,23.875,VALID,105,VALID,0.369141,
2012-09-11, 02:34:04,VALID,1000.33,VALID,0,VALID,78.5622,VALID,0,VALID,23.8573,VALID,119,VALID,0.90625,
2012-09-11, 02:35:04,VALID,1000.31,VALID,0,VALID,78.6538,VALID,0,VALID,23.836,VALID,119,VALID,0.575781,
2012-09-11, 02:36:04,VALID,1000.34,VALID,0,VALID,78.669,VALID,0,VALID,23.8165,VALID,119,VALID,0.514453,
2012-09-11, 02:37:04,VALID,1000.35,VALID,0,VALID,78.9437,VALID,0,VALID,23.797,VALID,119,VALID,0.466797,
2012-09-11, 02:38:04,VALID,1000.35,VALID,0,VALID,79.0352,VALID,0,VALID,23.797,VALID,99,VALID,0.545313,
2012-09-11, 02:39:04,VALID,1000.36,VALID,0,VALID,79.1192,VALID,0,VALID,23.7775,VALID,98,VALID,0.771875,
2012-09-11, 02:40:04,VALID,1000.4,VALID,0,VALID,79.3557,VALID,0,VALID,23.7579,VALID,98,VALID,0.607422,
2012-09-11, 02:41:04,VALID,1000.38,VALID,0,VALID,79.3862,VALID,0.104696,VALID,23.7384,VALID,97,VALID,0.660547,
2012-09-11, 02:42:04,VALID,1000.38,VALID,0,VALID,79.4625,VALID,0,VALID,23.6994,VALID,97,VALID,0.597266,
2012-09-11, 02:43:04,VALID,1000.39,VALID,0,VALID,79.4243,VALID,0,VALID,23.6799,VALID,97,VALID,0.46875,
2012-09-11, 02:44:04,VALID,1000.39,VALID,0,VALID,79.4472,VALID,0.104696,VALID,23.6799,VALID,97,VALID,0.385547,
2012-09-11, 02:45:04,VALID,1000.39,VALID,0,VALID,79.0505,VALID,0,VALID,23.6817,VALID,99,VALID,0.858203,
2012-09-11, 02:46:04,VALID,1000.42,VALID,0,VALID,79.1573,VALID,0,VALID,23.7207,VALID,132,VALID,0.458203,
2012-09-11, 02:47:04,VALID,1000.37,VALID,0,VALID,78.5393,VALID,0,VALID,23.7189,VALID,145,VALID,1.13867,
2012-09-11, 02:48:04,VALID,1000.38,VALID,0,VALID,78.1655,VALID,0,VALID,23.7384,VALID,128,VALID,1.18594,
2012-09-11, 02:49:04,VALID,1000.4,VALID,0,VALID,77.6848,VALID,0,VALID,23.7775,VALID,129,VALID,1.43125,
2012-09-11, 02:50:04,VALID,1000.37,VALID,0,VALID,77.4406,VALID,0,VALID,23.8555,VALID,132,VALID,1.3457,
2012-09-11, 02:51:04,VALID,1000.36,VALID,0,VALID,77.1355,VALID,0,VALID,23.8945,VALID,130,VALID,1.63242,
2012-09-11, 02:52:04,VALID,1000.34,VALID,0,VALID,76.8913,VALID,0,VALID,23.9549,VALID,121,VALID,1.55,
2012-09-11, 02:53:04,VALID,1000.35,VALID,0,VALID,76.4793,VALID,0,VALID,23.9531,VALID,119,VALID,1.63516,
2012-09-11, 02:54:04,VALID,1000.34,VALID,0,VALID,76.7006,VALID,0,VALID,23.9744,VALID,122,VALID,1.03047,
2012-09-11, 02:55:04,VALID,1000.39,VALID,0,VALID,76.4717,VALID,0,VALID,23.9336,VALID,126,VALID,1.26328,
2012-09-11, 02:56:04,VALID,1000.41,VALID,0,VALID,76.342,VALID,0,VALID,23.9549,VALID,122,VALID,1.10234,
2012-09-11, 02:57:04,VALID,1000.41,VALID,0,VALID,75.8689,VALID,0,VALID,23.9921,VALID,131,VALID,1.22109,
2012-09-11, 02:58:04,VALID,1000.42,VALID,0,VALID,75.7316,VALID,0.104696,VALID,24.0506,VALID,126,VALID,0.983203,
2012-09-11, 02:59:04,VALID,1000.44,VALID,0,VALID,75.9529,VALID,0.104696,VALID,24.0506,VALID,126,VALID,0.464063,
2012-09-11, 03:00:04,VALID,1000.42,VALID,0,VALID,76.1131,VALID,0,VALID,24.0525,VALID,126,VALID,0.5,
2012-09-11, 03:01:04,VALID,1000.41,VALID,0,VALID,76.3038,VALID,0,VALID,24.0116,VALID,126,VALID,0.240625,
2012-09-11, 03:02:04,VALID,1000.41,VALID,0,VALID,76.2809,VALID,0.104696,VALID,23.9726,VALID,126,VALID,0.272656,
2012-09-11, 03:03:04,VALID,1000.38,VALID,0,VALID,76.1283,VALID,0,VALID,23.9336,VALID,116,VALID,0.598828,
2012-09-11, 03:04:04,VALID,1000.42,VALID,0,VALID,76.2199,VALID,0,VALID,23.9549,VALID,113,VALID,0.611328,
2012-09-11, 03:05:04,VALID,1000.4,VALID,0,VALID,75.9223,VALID,0.104696,VALID,23.914,VALID,113,VALID,1.04531,
2012-09-11, 03:06:04,VALID,1000.37,VALID,0,VALID,75.8842,VALID,0.104696,VALID,23.914,VALID,117,VALID,1.12734,
2012-09-11, 03:07:04,VALID,1000.4,VALID,0,VALID,76.197,VALID,0,VALID,23.9159,VALID,107,VALID,0.632813,
2012-09-11, 03:08:04,VALID,1000.4,VALID,0,VALID,76.4641,VALID,0,VALID,23.8768,VALID,106,VALID,0.448047,
2012-09-11, 03:09:04,VALID,1000.42,VALID,0,VALID,76.6243,VALID,0,VALID,23.8183,VALID,106,VALID,0.589063,
2012-09-11, 03:10:04,VALID,1000.41,VALID,0,VALID,77.1583,VALID,0,VALID,23.7793,VALID,106,VALID,0.616797,
2012-09-11, 03:11:04,VALID,1000.39,VALID,0,VALID,77.6543,VALID,0,VALID,23.7402,VALID,105,VALID,0.699219,
2012-09-11, 03:12:04,VALID,1000.38,VALID,0,VALID,78.3104,VALID,0,VALID,23.6622,VALID,105,VALID,0.810547,
2012-09-11, 03:13:04,VALID,1000.39,VALID,0,VALID,78.6919,VALID,0,VALID,23.625,VALID,105,VALID,0.529297,
2012-09-11, 03:14:04,VALID,1000.37,VALID,0,VALID,79.0276,VALID,0,VALID,23.5841,VALID,105,VALID,0.495313,
2012-09-11, 03:15:04,VALID,1000.37,VALID,0,VALID,79.3404,VALID,0,VALID,23.5451,VALID,105,VALID,0.420312,
2012-09-11, 03:16:04,VALID,1000.35,VALID,0,VALID,79.5998,VALID,0,VALID,23.5274,VALID,105,VALID,0.111328,
2012-09-11, 03:17:04,VALID,1000.35,VALID,0,VALID,79.8058,VALID,0,VALID,23.4671,VALID,105,VALID,0,
2012-09-11, 03:18:04,VALID,1000.35,VALID,0,VALID,80.0195,VALID,0,VALID,23.428,VALID,105,VALID,0.225,
2012-09-11, 03:19:04,VALID,1000.33,VALID,0,VALID,80.1568,VALID,0,VALID,23.4103,VALID,105,VALID,0.314844,
2012-09-11, 03:20:04,VALID,1000.33,VALID,0,VALID,80.1186,VALID,0,VALID,23.3908,VALID,105,VALID,0.383594,
2012-09-11, 03:21:04,VALID,1000.35,VALID,0,VALID,80.1339,VALID,0,VALID,23.35,VALID,105,VALID,0.362109,
2012-09-11, 03:22:04,VALID,1000.37,VALID,0,VALID,79.9432,VALID,0,VALID,23.3287,VALID,105,VALID,0.478516,
2012-09-11, 03:23:04,VALID,1000.35,VALID,0,VALID,79.8592,VALID,0,VALID,23.3695,VALID,105,VALID,0.524219,
2012-09-11, 03:24:04,VALID,1000.38,VALID,0,VALID,80.0347,VALID,0,VALID,23.35,VALID,105,VALID,0.478125,
2012-09-11, 03:25:04,VALID,1000.36,VALID,0,VALID,79.699,VALID,0,VALID,23.35,VALID,105,VALID,0.625,
2012-09-11, 03:26:04,VALID,1000.37,VALID,0,VALID,79.7524,VALID,0,VALID,23.3482,VALID,105,VALID,0.708984,
2012-09-11, 03:27:04,VALID,1000.39,VALID,0,VALID,79.7524,VALID,0,VALID,23.3482,VALID,105,VALID,0.660547,
2012-09-11, 03:28:04,VALID,1000.4,VALID,0,VALID,79.5235,VALID,0,VALID,23.389,VALID,105,VALID,0.458984,
2012-09-11, 03:29:04,VALID,1000.41,VALID,0,VALID,79.4854,VALID,0,VALID,23.4085,VALID,105,VALID,0.395312,
2012-09-11, 03:30:04,VALID,1000.41,VALID,0,VALID,79.4778,VALID,0,VALID,23.3872,VALID,105,VALID,0.428516,
2012-09-11, 03:31:04,VALID,1000.4,VALID,0,VALID,79.2412,VALID,0,VALID,23.4085,VALID,125,VALID,0.712109,
2012-09-11, 03:32:04,VALID,1000.42,VALID,0,VALID,79.2565,VALID,0,VALID,23.4067,VALID,129,VALID,0.639453,
2012-09-11, 03:33:04,VALID,1000.41,VALID,0,VALID,78.7911,VALID,0,VALID,23.4067,VALID,131,VALID,0.946484,
2012-09-11, 03:34:04,VALID,1000.4,VALID,0,VALID,78.4172,VALID,0,VALID,23.4671,VALID,129,VALID,1.09141,
2012-09-11, 03:35:04,VALID,1000.41,VALID,0,VALID,78.1044,VALID,0,VALID,23.5061,VALID,129,VALID,1.03984,
2012-09-11, 03:36:04,VALID,1000.45,VALID,0,VALID,77.8069,VALID,0,VALID,23.5646,VALID,125,VALID,1.3418,
2012-09-11, 03:37:04,VALID,1000.43,VALID,0,VALID,77.5856,VALID,0,VALID,23.6445,VALID,125,VALID,1.2207,
2012-09-11, 03:38:04,VALID,1000.44,VALID,0,VALID,77.3567,VALID,0,VALID,23.6835,VALID,131,VALID,1.33203,
2012-09-11, 03:39:04,VALID,1000.47,VALID,0,VALID,77.2346,VALID,0,VALID,23.742,VALID,126,VALID,1.10547,
2012-09-11, 03:40:04,VALID,1000.46,VALID,0,VALID,77.2499,VALID,0,VALID,23.7207,VALID,126,VALID,0.953125,
2012-09-11, 03:41:04,VALID,1000.49,VALID,0,VALID,77.4559,VALID,0,VALID,23.7012,VALID,133,VALID,1.31094,
2012-09-11, 03:42:04,VALID,1000.5,VALID,0,VALID,77.7077,VALID,0,VALID,23.7012,VALID,131,VALID,1.02461,
2012-09-11, 03:43:04,VALID,1000.5,VALID,0,VALID,77.8526,VALID,0,VALID,23.703,VALID,129,VALID,1.33555,
2012-09-11, 03:44:04,VALID,1000.48,VALID,0,VALID,78.0815,VALID,0,VALID,23.6622,VALID,131,VALID,1.01719,
2012-09-11, 03:45:04,VALID,1000.52,VALID,0,VALID,78.2799,VALID,0,VALID,23.6835,VALID,131,VALID,1.08633,